• In Netherlands
  • List of Countries
  • For 7 days
  • Water Temperature
  • Satellite Maps
  • Weather Map
  • Weather Widgets
  • user-avatar
    Login

    Hourly Weather Gold Coast

    Today, 24 January, Tuesday

    Time Temperature Precipitation Wind Pressure Humidity
    00:00 +19°C° 0 mm 3 mps 758 mmHg 88%
    01:00 +19°C° 0 mm 3 mps 758 mmHg 90%
    02:00 +19°C° 0 mm 3 mps 758 mmHg 90%
    03:00 +19°C° 0 mm 3 mps 758 mmHg 91%
    04:00 +19°C° 0 mm 3 mps 757 mmHg 91%
    05:00 +20°C° 0 mm 3 mps 758 mmHg 87%
    06:00 +22°C° 0 mm 3 mps 758 mmHg 82%
    07:00 +24°C° 0 mm 3 mps 758 mmHg 78%
    08:00 +26°C° 0 mm 3 mps 758 mmHg 69%
    09:00 +28°C° 0 mm 3 mps 758 mmHg 61%
    10:00 +32°C° 0 mm 4 mps 758 mmHg 51%
    11:00 +33°C° 0 mm 4 mps 757 mmHg 47%
    12:00 +34°C° 0 mm 5 mps 756 mmHg 43%
    13:00 +35°C° 0 mm 5 mps 756 mmHg 39%
    14:00 +35°C° 0 mm 5 mps 756 mmHg 42%
    15:00 +34°C° 0 mm 6 mps 755 mmHg 45%
    16:00 +34°C° 0 mm 6 mps 755 mmHg 48%
    17:00 +30°C° 0 mm 6 mps 755 mmHg 57%
    18:00 +28°C° 0 mm 6 mps 756 mmHg 66%
    19:00 +26°C° 0 mm 6 mps 756 mmHg 74%
    20:00 +25°C° 0 mm 5 mps 757 mmHg 79%
    21:00 +23°C° 0 mm 5 mps 757 mmHg 83%
    22:00 +22°C° 0 mm 5 mps 757 mmHg 87%
    23:00 +22°C° 0 mm 5 mps 757 mmHg 88%

    Tomorrow, 25 January, Wednesday

    Time Temperature Precipitation Wind Pressure Humidity
    00:00 +22°C° 0 mm 4 mps 757 mmHg 88%
    01:00 +21°C° 0 mm 4 mps 757 mmHg 89%
    02:00 +21°C° 0 mm 4 mps 757 mmHg 89%
    03:00 +21°C° 0 mm 4 mps 757 mmHg 89%
    04:00 +21°C° 0 mm 4 mps 757 mmHg 89%
    05:00 +22°C° 0 mm 4 mps 757 mmHg 84%
    06:00 +24°C° 0 mm 3 mps 757 mmHg 78%
    07:00 +26°C° 0 mm 3 mps 757 mmHg 73%
    08:00 +28°C° 0 mm 3 mps 758 mmHg 66%
    09:00 +30°C° 0 mm 2 mps 758 mmHg 59%
    10:00 +32°C° 0 mm 1 mps 758 mmHg 52%
    11:00 +34°C° 0 mm 2 mps 757 mmHg 51%
    12:00 +35°C° 0 mm 3 mps 757 mmHg 50%
    13:00 +36°C° 0 mm 4 mps 757 mmHg 49%
    14:00 +35°C° 0 mm 4 mps 756 mmHg 53%
    15:00 +34°C° 0 mm 4 mps 756 mmHg 57%
    16:00 +33°C° 0 mm 5 mps 756 mmHg 62%
    17:00 +30°C° 0 mm 4 mps 756 mmHg 68%
    18:00 +28°C° 0 mm 4 mps 757 mmHg 74%
    19:00 +26°C° 0 mm 4 mps 757 mmHg 80%
    20:00 +25°C° 0 mm 3 mps 757 mmHg 83%
    21:00 +25°C° 0 mm 3 mps 758 mmHg 86%
    22:00 +24°C° 0 mm 3 mps 758 mmHg 89%
    23:00 +24°C° 0 mm 3 mps 758 mmHg 90%

    Day after tomorrow, 26 January, Thursday

    Time Temperature Precipitation Wind Pressure Humidity
    00:00 +22°C° 0 mm 3 mps 757 mmHg 91%
    01:00 +23°C° 0 mm 2 mps 757 mmHg 92%
    02:00 +23°C° 0 mm 2 mps 756 mmHg 92%
    03:00 +21°C° 0 mm 2 mps 756 mmHg 92%
    04:00 +21°C° 0 mm 2 mps 756 mmHg 93%
    05:00 +24°C° 0 mm 2 mps 756 mmHg 88%
    06:00 +25°C° 0 mm 3 mps 757 mmHg 84%
    07:00 +26°C° 0 mm 3 mps 757 mmHg 80%
    08:00 +28°C° 0 mm 3 mps 757 mmHg 72%
    09:00 +29°C° 0 mm 3 mps 757 mmHg 64%
    10:00 +31°C° 0 mm 3 mps 757 mmHg 57%
    11:00 +33°C° 0 mm 4 mps 756 mmHg 53%
    12:00 +35°C° 0 mm 4 mps 755 mmHg 49%
    13:00 +36°C° 0 mm 4 mps 755 mmHg 46%
    14:00 +35°C° 0.2 mm 5 mps 754 mmHg 51%
    15:00 +34°C° 0.2 mm 5 mps 754 mmHg 57%
    16:00 +33°C° 0.2 mm 6 mps 753 mmHg 63%
    17:00 +30°C° 0.8 mm 6 mps 754 mmHg 70%
    18:00 +28°C° 0.8 mm 5 mps 754 mmHg 78%
    19:00 +26°C° 0.8 mm 5 mps 755 mmHg 85%
    20:00 +25°C° 0.5 mm 4 mps 755 mmHg 88%
    21:00 +25°C° 0.5 mm 3 mps 756 mmHg 91%
    22:00 +24°C° 0.5 mm 3 mps 756 mmHg 94%
    23:00 +24°C° 0.6 mm 2 mps 756 mmHg 94%

    27 January, Friday

    Time Temperature Precipitation Wind Pressure Humidity
    00:00 +24°C° 0.6 mm 2 mps 756 mmHg 94%
    01:00 +24°C° 0.6 mm 2 mps 755 mmHg 95%
    02:00 +24°C° 0.2 mm 2 mps 755 mmHg 95%
    03:00 +24°C° 0.2 mm 2 mps 755 mmHg 95%
    04:00 +24°C° 0.2 mm 2 mps 755 mmHg 95%
    05:00 +25°C° 0 mm 2 mps 756 mmHg 93%
    06:00 +26°C° 0 mm 2 mps 756 mmHg 90%
    07:00 +26°C° 0 mm 3 mps 757 mmHg 88%
    08:00 +26°C° 0.1 mm 3 mps 757 mmHg 87%
    09:00 +26°C° 0.1 mm 3 mps 757 mmHg 87%
    10:00 +27°C° 0.1 mm 3 mps 757 mmHg 87%
    11:00 +27°C° 0.1 mm 3 mps 757 mmHg 83%
    12:00 +28°C° 0.1 mm 3 mps 756 mmHg 79%
    13:00 +29°C° 0.1 mm 4 mps 756 mmHg 75%
    14:00 +29°C° 0.1 mm 4 mps 756 mmHg 74%
    15:00 +29°C° 0.1 mm 4 mps 756 mmHg 72%
    16:00 +29°C° 0.1 mm 4 mps 756 mmHg 71%
    17:00 +28°C° 0.1 mm 4 mps 756 mmHg 75%
    18:00 +26°C° 0.1 mm 4 mps 757 mmHg 80%
    19:00 +25°C° 0.1 mm 4 mps 757 mmHg 84%
    20:00 +25°C° 0.1 mm 4 mps 757 mmHg 85%
    21:00 +25°C° 0.1 mm 3 mps 758 mmHg 87%
    22:00 +24°C° 0.1 mm 3 mps 758 mmHg 88%
    23:00 +24°C° 0 mm 3 mps 758 mmHg 89%

    28 January, Saturday

    Time Temperature Precipitation Wind Pressure Humidity
    00:00 +24°C° 0 mm 3 mps 757 mmHg 89%
    01:00 +24°C° 0 mm 3 mps 757 mmHg 89%
    02:00 +24°C° 0.1 mm 3 mps 757 mmHg 90%
    03:00 +24°C° 0.1 mm 2 mps 757 mmHg 90%
    04:00 +24°C° 0.1 mm 2 mps 757 mmHg 91%
    05:00 +25°C° 0.1 mm 2 mps 757 mmHg 89%
    06:00 +25°C° 0.1 mm 2 mps 758 mmHg 87%
    07:00 +26°C° 0.1 mm 2 mps 758 mmHg 85%
    08:00 +27°C° 0.1 mm 2 mps 758 mmHg 79%
    09:00 +29°C° 0.1 mm 2 mps 758 mmHg 73%
    10:00 +30°C° 0.1 mm 2 mps 758 mmHg 68%
    11:00 +30°C° 0.5 mm 3 mps 758 mmHg 68%
    12:00 +30°C° 0.5 mm 3 mps 757 mmHg 68%
    13:00 +30°C° 0.5 mm 4 mps 757 mmHg 69%
    14:00 +30°C° 0.1 mm 4 mps 757 mmHg 69%
    15:00 +30°C° 0.1 mm 4 mps 756 mmHg 69%
    16:00 +30°C° 0.1 mm 5 mps 756 mmHg 69%
    17:00 +28°C° 0 mm 4 mps 757 mmHg 74%
    18:00 +27°C° 0 mm 4 mps 757 mmHg 80%
    19:00 +26°C° 0 mm 4 mps 758 mmHg 85%
    20:00 +25°C° 0 mm 3 mps 758 mmHg 88%
    21:00 +24°C° 0 mm 3 mps 758 mmHg 90%
    22:00 +24°C° 0 mm 3 mps 759 mmHg 92%
    23:00 +24°C° 0 mm 3 mps 758 mmHg 91%

    29 January, Sunday

    Time Temperature Precipitation Wind Pressure Humidity
    00:00 +24°C° 0 mm 2 mps 758 mmHg 90%
    01:00 +24°C° 0 mm 2 mps 757 mmHg 89%
    02:00 +23°C° 0 mm 2 mps 757 mmHg 90%
    03:00 +23°C° 0 mm 2 mps 757 mmHg 91%
    04:00 +21°C° 0 mm 2 mps 757 mmHg 92%
    05:00 +23°C° 0 mm 2 mps 758 mmHg 87%
    06:00 +25°C° 0 mm 2 mps 758 mmHg 82%
    07:00 +26°C° 0 mm 2 mps 759 mmHg 77%
    08:00 +28°C° 0 mm 3 mps 759 mmHg 70%
    09:00 +29°C° 0 mm 3 mps 759 mmHg 63%
    10:00 +30°C° 0 mm 3 mps 759 mmHg 56%
    11:00 +31°C° 0 mm 3 mps 758 mmHg 53%
    12:00 +33°C° 0 mm 4 mps 758 mmHg 51%
    13:00 +33°C° 0 mm 4 mps 758 mmHg 49%
    14:00 +33°C° 0 mm 4 mps 758 mmHg 53%
    15:00 +32°C° 0 mm 5 mps 757 mmHg 56%
    16:00 +32°C° 0 mm 5 mps 757 mmHg 59%
    17:00 +29°C° 0 mm 5 mps 758 mmHg 67%
    18:00 +27°C° 0 mm 4 mps 758 mmHg 76%
    19:00 +25°C° 0 mm 4 mps 759 mmHg 84%
    20:00 +25°C° 0 mm 4 mps 759 mmHg 87%
    21:00 +23°C° 0 mm 4 mps 759 mmHg 90%
    22:00 +23°C° 0 mm 4 mps 760 mmHg 93%
    23:00 +23°C° 0.1 mm 4 mps 759 mmHg 93%
    Show more